Time,TemperatureF,DewpointF,PressureIn,WindDirection,WindDirectionDegrees,WindSpeedMPH,WindSpeedGustMPH,Humidity,HourlyPrecipIn,Conditions,Clouds,dailyrainin,SoftwareType,DateUTC
2013-01-03 00:07:00,1.3,-4.0,30.26,NE,48,1.0,2.0,78,0.00,,,0.00,weatherlink.com 1.10,2013-01-03 05:07:00,
2013-01-03 00:22:00,1.3,-4.0,30.26,ENE,75,2.0,3.0,77,0.00,,,0.00,weatherlink.com 1.10,2013-01-03 05:22:00,
2013-01-03 00:37:00,1.0,-5.0,30.27,ENE,72,1.0,2.0,77,0.00,,,0.00,weatherlink.com 1.10,2013-01-03 05:37:00,
2013-01-03 00:52:00,0.7,-5.0,30.27,NNE,19,0.0,2.0,78,0.00,,,0.00,weatherlink.com 1.10,2013-01-03 05:52:00,
2013-01-03 01:07:00,0.0,-5.0,30.27,NNE,25,0.0,2.0,79,0.00,,,0.00,weatherlink.com 1.10,2013-01-03 06:07:00,
2013-01-03 01:22:00,-0.3,-5.0,30.28,NNE,33,1.0,2.0,79,0.00,,,0.00,weatherlink.com 1.10,2013-01-03 06:22:00,
2013-01-03 01:37:00,-0.7,-5.0,30.27,ENE,64,0.0,1.0,80,0.00,,,0.00,weatherlink.com 1.10,2013-01-03 06:37:00,
2013-01-03 01:52:00,-1.7,-6.0,30.28,NE,53,0.0,1.0,80,0.00,,,0.00,weatherlink.com 1.10,2013-01-03 06:52:00,
2013-01-03 02:07:00,-3.3,-8.0,30.28,NE,53,0.0,0.0,82,0.00,,,0.00,weatherlink.com 1.10,2013-01-03 07:07:00,
2013-01-03 02:22:00,-4.6,-9.0,30.28,NE,53,0.0,0.0,83,0.00,,,0.00,weatherlink.com 1.10,2013-01-03 07:22:00,
2013-01-03 02:38:00,-5.3,-8.0,30.28,NE,52,0.0,0.0,86,0.00,,,0.00,weatherlink.com 1.10,2013-01-03 07:38:00,
2013-01-03 02:53:00,-6.5,-10.0,30.28,NE,53,0.0,0.0,85,0.00,,,0.00,weatherlink.com 1.10,2013-01-03 07:53:00,
2013-01-03 03:08:00,-6.3,-9.0,30.28,North,352,0.0,0.0,87,0.00,,,0.00,weatherlink.com 1.10,2013-01-03 08:08:00,
2013-01-03 03:23:00,-6.9,-10.0,30.27,North,352,0.0,0.0,86,0.00,,,0.00,weatherlink.com 1.10,2013-01-03 08:23:00,
2013-01-03 03:38:00,-7.4,-10.0,30.27,North,352,0.0,0.0,87,0.00,,,0.00,weatherlink.com 1.10,2013-01-03 08:38:00,
2013-01-03 03:53:00,-8.4,-12.0,30.26,North,352,0.0,0.0,86,0.00,,,0.00,weatherlink.com 1.10,2013-01-03 08:53:00,
2013-01-03 04:08:00,-9.5,-13.0,30.26,North,352,0.0,0.0,86,0.00,,,0.00,weatherlink.com 1.10,2013-01-03 09:08:00,
2013-01-03 04:23:00,-9.7,-13.0,30.26,North,352,0.0,0.0,87,0.00,,,0.00,weatherlink.com 1.10,2013-01-03 09:23:00,
2013-01-03 04:38:00,-10.0,-13.0,30.25,North,352,0.0,0.0,88,0.00,,,0.00,weatherlink.com 1.10,2013-01-03 09:38:00,
2013-01-03 04:53:00,-9.9,-13.0,30.25,North,352,0.0,0.0,88,0.00,,,0.00,weatherlink.com 1.10,2013-01-03 09:53:00,
2013-01-03 05:08:00,-10.3,-13.0,30.25,North,352,0.0,0.0,87,0.00,,,0.00,weatherlink.com 1.10,2013-01-03 10:08:00,
2013-01-03 05:23:00,-10.6,-13.0,30.25,North,352,0.0,0.0,87,0.00,,,0.00,weatherlink.com 1.10,2013-01-03 10:23:00,
2013-01-03 05:38:00,-10.7,-14.0,30.25,North,352,0.0,0.0,87,0.00,,,0.00,weatherlink.com 1.10,2013-01-03 10:38:00,
2013-01-03 05:54:00,-11.0,-14.0,30.24,North,352,0.0,0.0,87,0.00,,,0.00,weatherlink.com 1.10,2013-01-03 10:54:00,
2013-01-03 06:09:00,-11.6,-14.0,30.24,North,352,0.0,0.0,87,0.00,,,0.00,weatherlink.com 1.10,2013-01-03 11:09:00,
2013-01-03 06:24:00,-9.9,-12.0,30.25,NW,325,0.0,0.0,90,0.00,,,0.00,weatherlink.com 1.10,2013-01-03 11:24:00,
2013-01-03 06:39:00,-10.4,-13.0,30.25,NW,325,0.0,0.0,87,0.00,,,0.00,weatherlink.com 1.10,2013-01-03 11:39:00,
2013-01-03 06:54:00,-11.2,-14.0,30.25,NW,325,0.0,0.0,86,0.00,,,0.00,weatherlink.com 1.10,2013-01-03 11:54:00,
2013-01-03 07:10:00,-11.4,-14.0,30.25,NW,325,0.0,0.0,86,0.00,,,0.00,weatherlink.com 1.10,2013-01-03 12:10:00,
2013-01-03 07:24:00,-11.2,-14.0,30.24,NW,324,0.0,0.0,87,0.00,,,0.00,weatherlink.com 1.10,2013-01-03 12:24:00,
2013-01-03 07:39:00,-11.2,-14.0,30.24,NW,325,0.0,0.0,87,0.00,,,0.00,weatherlink.com 1.10,2013-01-03 12:39:00,
2013-01-03 07:54:00,-11.1,-14.0,30.23,NW,324,0.0,0.0,87,0.00,,,0.00,weatherlink.com 1.10,2013-01-03 12:54:00,
2013-01-03 08:09:00,-10.6,-13.0,30.23,NW,325,0.0,0.0,87,0.00,,,0.00,weatherlink.com 1.10,2013-01-03 13:09:00,
2013-01-03 08:24:00,-9.4,-12.0,30.23,NW,324,0.0,0.0,89,0.00,,,0.00,weatherlink.com 1.10,2013-01-03 13:24:00,
2013-01-03 08:39:00,-8.2,-11.0,30.23,NW,325,0.0,0.0,89,0.00,,,0.00,weatherlink.com 1.10,2013-01-03 13:39:00,
2013-01-03 08:54:00,-6.2,-8.0,30.23,NW,325,0.0,0.0,90,0.00,,,0.00,weatherlink.com 1.10,2013-01-03 13:54:00,
2013-01-03 09:10:00,-3.4,-6.0,30.23,NNE,15,0.0,0.0,90,0.00,,,0.00,weatherlink.com 1.10,2013-01-03 14:10:00,
2013-01-03 09:25:00,-1.5,-4.0,30.23,WNW,282,0.0,1.0,88,0.00,,,0.00,weatherlink.com 1.10,2013-01-03 14:25:00,
2013-01-03 09:40:00,-0.3,-4.0,30.24,North,352,0.0,1.0,85,0.00,,,0.00,weatherlink.com 1.10,2013-01-03 14:40:00,
2013-01-03 09:55:00,0.6,-3.0,30.23,WSW,239,0.0,0.0,83,0.00,,,0.00,weatherlink.com 1.10,2013-01-03 14:55:00,
2013-01-03 10:10:00,1.8,-3.0,30.23,WNW,300,0.0,1.0,81,0.00,,,0.00,weatherlink.com 1.10,2013-01-03 15:10:00,
2013-01-03 10:25:00,2.7,-3.0,30.23,NE,44,0.0,2.0,78,0.00,,,0.00,weatherlink.com 1.10,2013-01-03 15:25:00,
2013-01-03 10:40:00,3.7,-3.0,30.22,ENE,57,2.0,3.0,75,0.00,,,0.00,weatherlink.com 1.10,2013-01-03 15:40:00,
2013-01-03 10:55:00,4.6,-2.0,30.21,ENE,59,1.0,2.0,73,0.00,,,0.00,weatherlink.com 1.10,2013-01-03 15:55:00,
2013-01-03 11:10:00,5.0,-3.0,30.20,NNE,20,0.0,2.0,71,0.00,,,0.00,weatherlink.com 1.10,2013-01-03 16:10:00,
2013-01-03 11:25:00,5.8,-2.0,30.18,SW,226,0.0,1.0,71,0.00,,,0.00,weatherlink.com 1.10,2013-01-03 16:25:00,
2013-01-03 11:40:00,7.1,-1.0,30.18,WNW,283,0.0,1.0,69,0.00,,,0.00,weatherlink.com 1.10,2013-01-03 16:40:00,
2013-01-03 11:55:00,8.0,-1.0,30.17,East,82,0.0,2.0,68,0.00,,,0.00,weatherlink.com 1.10,2013-01-03 16:55:00,
2013-01-03 12:10:00,9.2,0.0,30.16,West,273,0.0,1.0,66,0.00,,,0.00,weatherlink.com 1.10,2013-01-03 17:10:00,
2013-01-03 12:26:00,9.8,0.0,30.15,ENE,68,1.0,3.0,65,0.00,,,0.00,weatherlink.com 1.10,2013-01-03 17:26:00,
2013-01-03 12:41:00,10.8,1.0,30.15,SE,133,0.0,3.0,64,0.00,,,0.00,weatherlink.com 1.10,2013-01-03 17:41:00,
2013-01-03 12:56:00,11.5,1.0,30.13,South,191,0.0,3.0,62,0.00,,,0.00,weatherlink.com 1.10,2013-01-03 17:56:00,
2013-01-03 13:11:00,12.1,1.0,30.13,WNW,287,0.0,2.0,62,0.00,,,0.00,weatherlink.com 1.10,2013-01-03 18:11:00,
2013-01-03 13:26:00,13.2,2.0,30.12,NW,316,0.0,0.0,61,0.00,,,0.00,weatherlink.com 1.10,2013-01-03 18:26:00,
2013-01-03 13:41:00,13.7,2.0,30.11,WNW,298,0.0,1.0,60,0.00,,,0.00,weatherlink.com 1.10,2013-01-03 18:41:00,
2013-01-03 13:56:00,13.6,2.0,30.11,WNW,283,0.0,2.0,60,0.00,,,0.00,weatherlink.com 1.10,2013-01-03 18:56:00,
2013-01-03 14:11:00,13.5,2.0,30.09,West,273,1.0,3.0,61,0.00,,,0.00,weatherlink.com 1.10,2013-01-03 19:11:00,
2013-01-03 14:56:00,14.1,3.0,30.09,WNW,282,2.0,2.0,61,0.00,,,0.00,weatherlink.com 1.10,2013-01-03 19:56:00,
2013-01-03 15:11:00,14.2,3.0,30.09,West,260,0.0,1.0,61,0.00,,,0.00,weatherlink.com 1.10,2013-01-03 20:11:00,
2013-01-03 15:26:00,14.3,3.0,30.09,SE,127,0.0,0.0,62,0.00,,,0.00,weatherlink.com 1.10,2013-01-03 20:26:00,
2013-01-03 15:42:00,14.0,4.0,30.09,NW,326,0.0,0.0,64,0.00,,,0.00,weatherlink.com 1.10,2013-01-03 20:42:00,
2013-01-03 15:57:00,13.9,4.0,30.08,NNW,328,0.0,0.0,65,0.00,,,0.00,weatherlink.com 1.10,2013-01-03 20:57:00,
2013-01-03 16:12:00,13.3,4.0,30.09,West,281,0.0,1.0,65,0.00,,,0.00,weatherlink.com 1.10,2013-01-03 21:12:00,
2013-01-03 16:27:00,12.6,4.0,30.08,West,281,0.0,0.0,67,0.00,,,0.00,weatherlink.com 1.10,2013-01-03 21:27:00,
2013-01-03 16:57:00,12.2,4.0,30.07,West,281,0.0,0.0,70,0.00,,,0.00,weatherlink.com 1.10,2013-01-03 21:57:00,
2013-01-03 17:12:00,12.4,5.0,30.07,West,281,0.0,0.0,71,0.00,,,0.00,weatherlink.com 1.10,2013-01-03 22:12:00,
2013-01-03 17:27:00,12.4,5.0,30.07,West,281,0.0,0.0,71,0.00,,,0.00,weatherlink.com 1.10,2013-01-03 22:27:00,
2013-01-03 17:42:00,11.5,4.0,30.07,West,281,0.0,0.0,73,0.00,,,0.00,weatherlink.com 1.10,2013-01-03 22:42:00,
2013-01-03 17:57:00,11.2,5.0,30.06,West,281,0.0,0.0,75,0.00,,,0.00,weatherlink.com 1.10,2013-01-03 22:57:00,
2013-01-03 18:12:00,11.5,6.0,30.05,West,281,0.0,0.0,77,0.00,,,0.00,weatherlink.com 1.10,2013-01-03 23:12:00,
2013-01-03 18:27:00,11.9,6.0,30.06,West,281,0.0,0.0,76,0.00,,,0.00,weatherlink.com 1.10,2013-01-03 23:27:00,
2013-01-03 18:42:00,12.0,6.0,30.07,West,281,0.0,0.0,77,0.00,,,0.00,weatherlink.com 1.10,2013-01-03 23:42:00,
2013-01-03 18:57:00,12.2,6.0,30.06,West,281,0.0,0.0,77,0.00,,,0.00,weatherlink.com 1.10,2013-01-03 23:57:00,
2013-01-03 19:13:00,12.1,6.0,30.06,West,281,0.0,0.0,77,0.00,,,0.00,weatherlink.com 1.10,2013-01-04 00:13:00,
2013-01-03 19:28:00,12.3,7.0,30.05,WNW,285,0.0,2.0,79,0.00,,,0.00,weatherlink.com 1.10,2013-01-04 00:28:00,
2013-01-03 19:43:00,12.5,7.0,30.05,WNW,285,1.0,1.0,80,0.00,,,0.00,weatherlink.com 1.10,2013-01-04 00:43:00,
2013-01-03 19:58:00,12.9,7.0,30.04,WNW,285,0.0,0.0,78,0.00,,,0.00,weatherlink.com 1.10,2013-01-04 00:58:00,
2013-01-03 20:13:00,12.8,7.0,30.05,WNW,285,0.0,0.0,79,0.00,,,0.00,weatherlink.com 1.10,2013-01-04 01:13:00,
2013-01-03 20:28:00,13.3,8.0,30.04,WNW,285,0.0,0.0,80,0.00,,,0.00,weatherlink.com 1.10,2013-01-04 01:28:00,
2013-01-03 20:43:00,13.5,8.0,30.04,WNW,285,0.0,0.0,79,0.00,,,0.00,weatherlink.com 1.10,2013-01-04 01:43:00,
2013-01-03 20:58:00,14.0,8.0,30.04,WNW,285,0.0,0.0,78,0.00,,,0.00,weatherlink.com 1.10,2013-01-04 01:58:00,
2013-01-03 21:13:00,14.1,9.0,30.04,WNW,285,0.0,0.0,79,0.00,,,0.00,weatherlink.com 1.10,2013-01-04 02:13:00,
2013-01-03 21:28:00,14.1,9.0,30.03,WNW,285,0.0,0.0,80,0.00,,,0.00,weatherlink.com 1.10,2013-01-04 02:28:00,
2013-01-03 21:43:00,14.2,9.0,30.03,WNW,285,0.0,0.0,80,0.00,,,0.00,weatherlink.com 1.10,2013-01-04 02:43:00,
2013-01-03 21:58:00,14.4,10.0,30.02,WNW,285,0.0,0.0,81,0.00,,,0.00,weatherlink.com 1.10,2013-01-04 02:58:00,
2013-01-03 22:13:00,14.6,10.0,30.02,WNW,285,0.0,0.0,82,0.00,,,0.00,weatherlink.com 1.10,2013-01-04 03:13:00,
2013-01-03 22:28:00,14.9,10.0,30.02,WNW,285,0.0,0.0,82,0.00,,,0.00,weatherlink.com 1.10,2013-01-04 03:28:00,
2013-01-03 22:43:00,15.2,10.0,30.02,WNW,285,0.0,0.0,81,0.00,,,0.00,weatherlink.com 1.10,2013-01-04 03:43:00,
2013-01-03 22:59:00,15.6,11.0,30.02,WNW,285,0.0,0.0,80,0.00,,,0.00,weatherlink.com 1.10,2013-01-04 03:59:00,
2013-01-03 23:14:00,15.8,11.0,30.01,WNW,285,0.0,0.0,81,0.00,,,0.00,weatherlink.com 1.10,2013-01-04 04:14:00,
2013-01-03 23:29:00,15.8,11.0,30.00,WNW,285,0.0,0.0,82,0.00,,,0.00,weatherlink.com 1.10,2013-01-04 04:29:00,
2013-01-03 23:44:00,15.8,11.0,30.00,WNW,285,0.0,0.0,82,0.00,,,0.00,weatherlink.com 1.10,2013-01-04 04:44:00,
2013-01-03 23:59:00,15.7,11.0,29.99,WNW,285,0.0,0.0,82,0.00,,,0.00,weatherlink.com 1.10,2013-01-04 04:59:00,